When you browse on this site, cookies collect data to enhance your experience and personalize the content and advertising you see.
Visit our Privacy Policy to learn more. By continuing to use the site, you agree to this use of cookies and data.
  • In Hungary
  • List of Countries
  • For 7 days
  • Water Temperature
  • Satellite Maps
  • Weather Map
  • News
  • Weather Widgets
  • user-avatar
    Login

    Hourly Weather Puchly

    Today, 25 May, Saturday

    Time Temperature Precipitation Wind Pressure Humidity
    00:00 +14°C° 0 mm 1 mps 746 mmHg 92%
    01:00 +13°C° 0 mm 1 mps 746 mmHg 93%
    02:00 +13°C° 0 mm 1 mps 746 mmHg 93%
    03:00 +13°C° 0 mm 1 mps 746 mmHg 93%
    04:00 +11°C° 0 mm 0 mps 746 mmHg 92%
    05:00 +11°C° 0 mm 0 mps 745 mmHg 91%
    06:00 +14°C° 0 mm 1 mps 746 mmHg 86%
    07:00 +16°C° 0 mm 1 mps 746 mmHg 80%
    08:00 +18°C° 0 mm 2 mps 746 mmHg 75%
    09:00 +19°C° 0.1 mm 3 mps 746 mmHg 71%
    10:00 +20°C° 0.1 mm 3 mps 745 mmHg 66%
    11:00 +21°C° 0.1 mm 4 mps 745 mmHg 61%
    12:00 +21°C° 0 mm 4 mps 745 mmHg 59%
    13:00 +22°C° 0 mm 4 mps 745 mmHg 57%
    14:00 +22°C° 0 mm 5 mps 745 mmHg 55%
    15:00 +22°C° 0.1 mm 5 mps 745 mmHg 58%
    16:00 +21°C° 0.1 mm 5 mps 745 mmHg 62%
    17:00 +21°C° 0.1 mm 5 mps 745 mmHg 66%
    18:00 +19°C° 0.1 mm 4 mps 745 mmHg 72%
    19:00 +18°C° 0.1 mm 4 mps 745 mmHg 79%
    20:00 +16°C° 0.1 mm 3 mps 745 mmHg 86%
    21:00 +14°C° 0 mm 3 mps 745 mmHg 88%
    22:00 +14°C° 0 mm 2 mps 746 mmHg 90%
    23:00 +12°C° 0 mm 2 mps 746 mmHg 92%

    Tomorrow, 26 May, Sunday

    Time Temperature Precipitation Wind Pressure Humidity
    00:00 +12°C° 0 mm 1 mps 746 mmHg 91%
    01:00 +11°C° 0 mm 1 mps 746 mmHg 90%
    02:00 +10°C° 0 mm 1 mps 746 mmHg 90%
    03:00 +10°C° 0 mm 1 mps 746 mmHg 91%
    04:00 +10°C° 0 mm 1 mps 746 mmHg 92%
    05:00 +10°C° 0 mm 1 mps 746 mmHg 93%
    06:00 +12°C° 0 mm 2 mps 746 mmHg 87%
    07:00 +12°C° 0 mm 3 mps 746 mmHg 82%
    08:00 +14°C° 0 mm 4 mps 747 mmHg 76%
    09:00 +15°C° 0 mm 5 mps 746 mmHg 72%
    10:00 +16°C° 0 mm 5 mps 746 mmHg 67%
    11:00 +17°C° 0 mm 5 mps 746 mmHg 63%
    12:00 +17°C° 0 mm 5 mps 746 mmHg 61%
    13:00 +19°C° 0 mm 5 mps 746 mmHg 59%
    14:00 +20°C° 0 mm 5 mps 745 mmHg 57%
    15:00 +20°C° 0 mm 5 mps 745 mmHg 59%
    16:00 +19°C° 0 mm 5 mps 745 mmHg 60%
    17:00 +19°C° 0 mm 5 mps 745 mmHg 61%
    18:00 +18°C° 0 mm 4 mps 745 mmHg 67%
    19:00 +17°C° 0 mm 3 mps 745 mmHg 74%
    20:00 +16°C° 0 mm 3 mps 745 mmHg 80%
    21:00 +14°C° 0 mm 3 mps 745 mmHg 83%
    22:00 +13°C° 0 mm 3 mps 745 mmHg 86%
    23:00 +13°C° 0 mm 2 mps 745 mmHg 89%

    Day after tomorrow, 27 May, Monday

    Time Temperature Precipitation Wind Pressure Humidity
    00:00 +12°C° 0 mm 3 mps 745 mmHg 88%
    01:00 +12°C° 0 mm 3 mps 745 mmHg 87%
    02:00 +12°C° 0 mm 3 mps 745 mmHg 87%
    03:00 +12°C° 0 mm 3 mps 745 mmHg 87%
    04:00 +11°C° 0 mm 3 mps 745 mmHg 88%
    05:00 +11°C° 0 mm 3 mps 745 mmHg 89%
    06:00 +13°C° 0 mm 3 mps 745 mmHg 84%
    07:00 +15°C° 0 mm 4 mps 745 mmHg 79%
    08:00 +18°C° 0 mm 4 mps 746 mmHg 74%
    09:00 +19°C° 0 mm 5 mps 745 mmHg 70%
    10:00 +21°C° 0 mm 6 mps 745 mmHg 65%
    11:00 +22°C° 0 mm 6 mps 745 mmHg 60%
    12:00 +23°C° 0.1 mm 6 mps 745 mmHg 59%
    13:00 +23°C° 0.1 mm 6 mps 745 mmHg 57%
    14:00 +24°C° 0.1 mm 6 mps 745 mmHg 56%
    15:00 +25°C° 0.1 mm 5 mps 744 mmHg 58%
    16:00 +25°C° 0.1 mm 5 mps 744 mmHg 60%
    17:00 +25°C° 0.1 mm 5 mps 744 mmHg 62%
    18:00 +22°C° 0.4 mm 4 mps 744 mmHg 70%
    19:00 +21°C° 0.4 mm 4 mps 744 mmHg 77%
    20:00 +19°C° 0.4 mm 4 mps 744 mmHg 84%
    21:00 +19°C° 0 mm 3 mps 744 mmHg 87%
    22:00 +18°C° 0 mm 3 mps 745 mmHg 90%
    23:00 +17°C° 0 mm 3 mps 745 mmHg 92%

    28 May, Tuesday

    Time Temperature Precipitation Wind Pressure Humidity
    00:00 +17°C° 0 mm 3 mps 745 mmHg 93%
    01:00 +16°C° 0 mm 3 mps 745 mmHg 94%
    02:00 +16°C° 0 mm 2 mps 745 mmHg 95%
    03:00 +16°C° 0 mm 2 mps 744 mmHg 94%
    04:00 +16°C° 0 mm 2 mps 744 mmHg 94%
    05:00 +16°C° 0 mm 2 mps 744 mmHg 93%
    06:00 +17°C° 0 mm 2 mps 744 mmHg 91%
    07:00 +18°C° 0 mm 3 mps 744 mmHg 88%
    08:00 +19°C° 0 mm 3 mps 744 mmHg 86%
    09:00 +19°C° 2.7 mm 3 mps 744 mmHg 89%
    10:00 +18°C° 2.7 mm 3 mps 743 mmHg 93%
    11:00 +17°C° 2.7 mm 4 mps 743 mmHg 96%
    12:00 +18°C° 1.2 mm 3 mps 743 mmHg 95%
    13:00 +18°C° 1.2 mm 3 mps 742 mmHg 94%
    14:00 +19°C° 1.2 mm 3 mps 742 mmHg 94%
    15:00 +20°C° 0.6 mm 3 mps 742 mmHg 89%
    16:00 +21°C° 0.6 mm 3 mps 742 mmHg 85%
    17:00 +24°C° 0.6 mm 3 mps 742 mmHg 81%
    18:00 +21°C° 0.1 mm 2 mps 742 mmHg 84%
    19:00 +20°C° 0.1 mm 2 mps 742 mmHg 88%
    20:00 +20°C° 0.1 mm 1 mps 742 mmHg 92%
    21:00 +19°C° 0.4 mm 2 mps 742 mmHg 94%
    22:00 +18°C° 0.4 mm 2 mps 742 mmHg 96%
    23:00 +17°C° 0.4 mm 2 mps 742 mmHg 98%

    29 May, Wednesday

    Time Temperature Precipitation Wind Pressure Humidity
    00:00 +17°C° 0 mm 3 mps 742 mmHg 98%
    01:00 +16°C° 0 mm 3 mps 742 mmHg 98%
    02:00 +16°C° 0 mm 3 mps 742 mmHg 98%
    03:00 +16°C° 0.7 mm 3 mps 742 mmHg 97%
    04:00 +16°C° 0.7 mm 3 mps 743 mmHg 97%
    05:00 +16°C° 0.7 mm 3 mps 743 mmHg 97%
    06:00 +16°C° 0.3 mm 3 mps 743 mmHg 97%
    07:00 +16°C° 0.3 mm 3 mps 743 mmHg 96%
    08:00 +17°C° 0.3 mm 3 mps 743 mmHg 96%
    09:00 +17°C° 0.2 mm 3 mps 743 mmHg 94%
    10:00 +17°C° 0.2 mm 4 mps 744 mmHg 92%
    11:00 +18°C° 0.2 mm 4 mps 744 mmHg 91%
    12:00 +18°C° 0.1 mm 4 mps 744 mmHg 88%
    13:00 +17°C° 0.1 mm 5 mps 745 mmHg 86%
    14:00 +19°C° 0.1 mm 5 mps 745 mmHg 84%
    15:00 +16°C° 0 mm 5 mps 745 mmHg 85%
    16:00 +15°C° 0 mm 6 mps 746 mmHg 86%
    17:00 +14°C° 0 mm 6 mps 746 mmHg 86%
    18:00 +13°C° 0 mm 6 mps 747 mmHg 86%
    19:00 +12°C° 0 mm 5 mps 747 mmHg 86%
    20:00 +12°C° 0 mm 5 mps 748 mmHg 86%
    21:00 +10°C° 0 mm 5 mps 748 mmHg 86%
    22:00 +10°C° 0 mm 5 mps 749 mmHg 86%
    23:00 +11°C° 0 mm 4 mps 749 mmHg 85%

    30 May, Thursday

    Time Temperature Precipitation Wind Pressure Humidity
    00:00 +10°C° 0 mm 4 mps 750 mmHg 83%
    01:00 +10°C° 0 mm 4 mps 750 mmHg 81%
    02:00 +8°C° 0 mm 4 mps 751 mmHg 79%
    03:00 +7°C° 0 mm 4 mps 751 mmHg 78%
    04:00 +7°C° 0 mm 3 mps 751 mmHg 78%
    05:00 +5°C° 0 mm 3 mps 752 mmHg 78%
    06:00 +8°C° 0 mm 3 mps 752 mmHg 74%
    07:00 +9°C° 0 mm 3 mps 752 mmHg 70%
    08:00 +10°C° 0 mm 3 mps 752 mmHg 66%
    09:00 +12°C° 0 mm 3 mps 753 mmHg 60%
    10:00 +14°C° 0 mm 3 mps 753 mmHg 54%
    11:00 +16°C° 0 mm 3 mps 753 mmHg 48%
    12:00 +17°C° 0 mm 2 mps 753 mmHg 48%
    13:00 +17°C° 0 mm 2 mps 753 mmHg 48%
    14:00 +18°C° 0 mm 2 mps 753 mmHg 48%
    15:00 +18°C° 0 mm 2 mps 752 mmHg 49%
    16:00 +18°C° 0 mm 2 mps 752 mmHg 50%
    17:00 +19°C° 0 mm 1 mps 752 mmHg 51%
    18:00 +18°C° 0 mm 1 mps 752 mmHg 57%
    19:00 +16°C° 0 mm 1 mps 751 mmHg 62%
    20:00 +14°C° 0 mm 1 mps 751 mmHg 68%
    21:00 +13°C° 0 mm 1 mps 751 mmHg 70%
    22:00 +11°C° 0 mm 0 mps 751 mmHg 71%
    23:00 +10°C° 0 mm 0 mps 751 mmHg 73%
    Show more